When you browse on this site, cookies collect data to enhance your experience and personalize the content and advertising you see.
Visit our Privacy Policy to learn more. By continuing to use the site, you agree to this use of cookies and data.
  • In Netherlands
  • List of Countries
  • For 7 days
  • Water Temperature
  • Satellite Maps
  • Weather Map
  • Weather Widgets
  • user-avatar
    Login

    Hourly Weather Golub Dobrzyń

    Today, 25 April, Thursday

    Time Temperature Precipitation Wind Pressure Humidity
    00:00 +15°C° 0 mm 6 mps 753 mmHg 75%
    01:00 +14°C° 0 mm 5 mps 752 mmHg 76%
    02:00 +14°C° 0 mm 5 mps 752 mmHg 77%
    03:00 +13°C° 0 mm 5 mps 752 mmHg 78%
    04:00 +13°C° 0 mm 5 mps 752 mmHg 79%
    05:00 +14°C° 0 mm 5 mps 752 mmHg 77%
    06:00 +15°C° 0 mm 5 mps 752 mmHg 74%
    07:00 +16°C° 0 mm 5 mps 752 mmHg 72%
    08:00 +19°C° 0 mm 5 mps 752 mmHg 67%
    09:00 +20°C° 0 mm 5 mps 752 mmHg 62%
    10:00 +22°C° 0 mm 5 mps 752 mmHg 56%
    11:00 +23°C° 0 mm 5 mps 752 mmHg 54%
    12:00 +25°C° 0 mm 5 mps 752 mmHg 51%
    13:00 +26°C° 0 mm 5 mps 752 mmHg 48%
    14:00 +25°C° 0 mm 4 mps 752 mmHg 49%
    15:00 +25°C° 0 mm 4 mps 752 mmHg 50%
    16:00 +25°C° 0 mm 3 mps 752 mmHg 51%
    17:00 +24°C° 0 mm 3 mps 752 mmHg 55%
    18:00 +21°C° 0 mm 2 mps 752 mmHg 60%
    19:00 +20°C° 0 mm 2 mps 752 mmHg 65%
    20:00 +19°C° 0 mm 2 mps 752 mmHg 68%
    21:00 +18°C° 0 mm 2 mps 752 mmHg 72%
    22:00 +17°C° 0 mm 2 mps 752 mmHg 75%
    23:00 +16°C° 0 mm 2 mps 752 mmHg 76%

    Tomorrow, 26 April, Friday

    Time Temperature Precipitation Wind Pressure Humidity
    00:00 +16°C° 0 mm 2 mps 752 mmHg 78%
    01:00 +15°C° 0 mm 2 mps 752 mmHg 79%
    02:00 +15°C° 0 mm 2 mps 752 mmHg 80%
    03:00 +15°C° 0 mm 2 mps 751 mmHg 81%
    04:00 +14°C° 0 mm 2 mps 751 mmHg 82%
    05:00 +16°C° 0 mm 3 mps 751 mmHg 79%
    06:00 +17°C° 0 mm 3 mps 751 mmHg 75%
    07:00 +18°C° 0 mm 3 mps 750 mmHg 72%
    08:00 +20°C° 0 mm 4 mps 750 mmHg 65%
    09:00 +22°C° 0 mm 4 mps 750 mmHg 59%
    10:00 +25°C° 0 mm 5 mps 750 mmHg 52%
    11:00 +26°C° 0 mm 5 mps 749 mmHg 49%
    12:00 +26°C° 0 mm 5 mps 749 mmHg 45%
    13:00 +27°C° 0 mm 5 mps 748 mmHg 42%
    14:00 +27°C° 0 mm 5 mps 748 mmHg 43%
    15:00 +27°C° 0 mm 5 mps 748 mmHg 44%
    16:00 +27°C° 0 mm 4 mps 747 mmHg 45%
    17:00 +25°C° 0 mm 4 mps 747 mmHg 51%
    18:00 +22°C° 0 mm 3 mps 747 mmHg 57%
    19:00 +21°C° 0 mm 2 mps 747 mmHg 62%
    20:00 +20°C° 0 mm 2 mps 747 mmHg 64%
    21:00 +19°C° 0 mm 2 mps 747 mmHg 66%
    22:00 +18°C° 0 mm 2 mps 747 mmHg 67%
    23:00 +18°C° 0 mm 2 mps 746 mmHg 70%

    Day after tomorrow, 27 April, Saturday

    Time Temperature Precipitation Wind Pressure Humidity
    00:00 +17°C° 0 mm 2 mps 746 mmHg 72%
    01:00 +17°C° 0 mm 2 mps 746 mmHg 74%
    02:00 +16°C° 0 mm 2 mps 747 mmHg 78%
    03:00 +16°C° 0 mm 3 mps 747 mmHg 82%
    04:00 +14°C° 0 mm 4 mps 747 mmHg 85%
    05:00 +15°C° 0 mm 5 mps 747 mmHg 85%
    06:00 +15°C° 0 mm 6 mps 748 mmHg 84%
    07:00 +15°C° 0 mm 6 mps 748 mmHg 83%
    08:00 +15°C° 0 mm 6 mps 749 mmHg 82%
    09:00 +15°C° 0 mm 6 mps 749 mmHg 80%
    10:00 +14°C° 0 mm 6 mps 749 mmHg 79%
    11:00 +15°C° 0 mm 6 mps 750 mmHg 76%
    12:00 +15°C° 0 mm 5 mps 750 mmHg 73%
    13:00 +15°C° 0 mm 5 mps 750 mmHg 70%
    14:00 +15°C° 0 mm 5 mps 750 mmHg 69%
    15:00 +15°C° 0 mm 5 mps 750 mmHg 68%
    16:00 +15°C° 0 mm 4 mps 750 mmHg 67%
    17:00 +14°C° 0 mm 3 mps 751 mmHg 70%
    18:00 +13°C° 0 mm 3 mps 751 mmHg 72%
    19:00 +13°C° 0 mm 2 mps 751 mmHg 75%
    20:00 +12°C° 0 mm 2 mps 751 mmHg 76%
    21:00 +12°C° 0 mm 2 mps 751 mmHg 76%
    22:00 +10°C° 0 mm 2 mps 751 mmHg 77%
    23:00 +10°C° 0 mm 2 mps 751 mmHg 73%

    28 April, Sunday

    Time Temperature Precipitation Wind Pressure Humidity
    00:00 +10°C° 0 mm 1 mps 752 mmHg 69%
    01:00 +10°C° 0 mm 1 mps 752 mmHg 66%
    02:00 +10°C° 0 mm 1 mps 752 mmHg 64%
    03:00 +10°C° 0 mm 1 mps 752 mmHg 62%
    04:00 +10°C° 0 mm 1 mps 752 mmHg 60%
    05:00 +10°C° 0 mm 2 mps 752 mmHg 60%
    06:00 +12°C° 0 mm 2 mps 752 mmHg 61%
    07:00 +12°C° 0 mm 2 mps 753 mmHg 62%
    08:00 +12°C° 0.1 mm 3 mps 753 mmHg 63%
    09:00 +12°C° 0.1 mm 3 mps 753 mmHg 63%
    10:00 +13°C° 0.1 mm 4 mps 753 mmHg 64%
    11:00 +13°C° 0 mm 4 mps 753 mmHg 62%
    12:00 +13°C° 0 mm 5 mps 753 mmHg 61%
    13:00 +14°C° 0 mm 5 mps 753 mmHg 59%
    14:00 +14°C° 0 mm 4 mps 753 mmHg 60%
    15:00 +14°C° 0 mm 4 mps 753 mmHg 60%
    16:00 +14°C° 0 mm 4 mps 753 mmHg 61%
    17:00 +13°C° 0.3 mm 3 mps 753 mmHg 69%
    18:00 +12°C° 0.3 mm 3 mps 754 mmHg 77%
    19:00 +12°C° 0.3 mm 2 mps 754 mmHg 85%
    20:00 +11°C° 0.5 mm 3 mps 754 mmHg 87%
    21:00 +10°C° 0.5 mm 3 mps 754 mmHg 90%
    22:00 +10°C° 0.5 mm 3 mps 754 mmHg 93%
    23:00 +10°C° 0.3 mm 3 mps 754 mmHg 93%

    29 April, Monday

    Time Temperature Precipitation Wind Pressure Humidity
    00:00 +10°C° 0.3 mm 3 mps 754 mmHg 94%
    01:00 +9°C° 0.3 mm 2 mps 754 mmHg 95%
    02:00 +10°C° 0.2 mm 2 mps 754 mmHg 95%
    03:00 +10°C° 0.2 mm 2 mps 754 mmHg 95%
    04:00 +10°C° 0.2 mm 2 mps 754 mmHg 96%
    05:00 +10°C° 0.8 mm 3 mps 754 mmHg 94%
    06:00 +10°C° 0.8 mm 4 mps 754 mmHg 92%
    07:00 +9°C° 0.8 mm 5 mps 754 mmHg 90%
    08:00 +10°C° 0.4 mm 5 mps 754 mmHg 85%
    09:00 +10°C° 0.4 mm 6 mps 754 mmHg 80%
    10:00 +11°C° 0.4 mm 6 mps 755 mmHg 75%
    11:00 +13°C° 0 mm 6 mps 755 mmHg 70%
    12:00 +14°C° 0 mm 6 mps 755 mmHg 65%
    13:00 +15°C° 0 mm 5 mps 755 mmHg 59%
    14:00 +15°C° 0 mm 5 mps 755 mmHg 56%
    15:00 +16°C° 0 mm 5 mps 755 mmHg 54%
    16:00 +16°C° 0 mm 5 mps 755 mmHg 51%
    17:00 +14°C° 0 mm 5 mps 755 mmHg 55%
    18:00 +13°C° 0 mm 4 mps 755 mmHg 58%
    19:00 +11°C° 0 mm 4 mps 755 mmHg 62%
    20:00 +10°C° 0 mm 4 mps 756 mmHg 63%
    21:00 +8°C° 0 mm 4 mps 756 mmHg 64%
    22:00 +7°C° 0 mm 4 mps 756 mmHg 65%
    23:00 +6°C° 0 mm 4 mps 756 mmHg 67%

    30 April, Tuesday

    Time Temperature Precipitation Wind Pressure Humidity
    00:00 +6°C° 0 mm 4 mps 756 mmHg 68%
    01:00 +5°C° 0 mm 4 mps 756 mmHg 70%
    02:00 +5°C° 0 mm 4 mps 756 mmHg 71%
    03:00 +4°C° 0 mm 4 mps 757 mmHg 72%
    04:00 +4°C° 0 mm 4 mps 757 mmHg 73%
    05:00 +5°C° 0 mm 4 mps 757 mmHg 70%
    06:00 +6°C° 0 mm 4 mps 757 mmHg 68%
    07:00 +7°C° 0 mm 5 mps 757 mmHg 65%
    08:00 +8°C° 0 mm 5 mps 757 mmHg 60%
    09:00 +10°C° 0 mm 5 mps 757 mmHg 55%
    10:00 +11°C° 0 mm 6 mps 757 mmHg 50%
    11:00 +13°C° 0 mm 6 mps 756 mmHg 48%
    12:00 +14°C° 0 mm 6 mps 756 mmHg 46%
    13:00 +15°C° 0 mm 5 mps 756 mmHg 44%
    14:00 +15°C° 0 mm 5 mps 756 mmHg 44%
    15:00 +15°C° 0 mm 5 mps 756 mmHg 45%
    16:00 +15°C° 0 mm 5 mps 755 mmHg 45%
    17:00 +14°C° 0 mm 5 mps 756 mmHg 49%
    18:00 +13°C° 0 mm 4 mps 756 mmHg 52%
    19:00 +12°C° 0 mm 4 mps 756 mmHg 56%
    20:00 +11°C° 0 mm 4 mps 756 mmHg 57%
    21:00 +10°C° 0 mm 4 mps 756 mmHg 59%
    22:00 +10°C° 0 mm 4 mps 756 mmHg 60%
    23:00 +8°C° 0 mm 3 mps 756 mmHg 65%
    Show more